Location: Palo Alto
(37.4420°N, 122.1420°W)
Time: 08:51:26
(UTC-07:00)

X-37B - Pass Details

Date: 17 August 2020
Orbit: 386 x 387 km, 45.0° (Epoch: 18 September)

Event Time Altitude Azimuth Distance (km) Brightness Sun altitude
Rises 22:20:51 0° 296° (WNW) 2,264 5.7 -25.5°
Reaches altitude 10° 22:22:56 10° 293° (WNW) 1,408 4.3 -25.8°
Enters shadow 22:24:07 21° 288° (WNW) 941 3.1 -26.0°
